CW1502 Weather Reports


Display with metric or nautical units.
time (UTC)temp
F
wind
direction
speed
MPH
gust
MPH
rain 1hr
in
rain 24hr
in
rain mn
in
humidity
%
barometer
mb
20180623055511 65 43 1.0 0.0 0.00 0.00 0.00 65 1005.1
20180623054040 65 62 2.0 0.0 0.00 0.00 0.00 64 1005.1
20180623052435 65 57 2.0 0.0 0.00 0.00 0.00 63 1005.2
20180623051014 65 61 2.0 0.0 0.00 0.00 0.00 62 1005.4
20180623045538 66 78 2.0 0.0 0.00 0.00 0.00 61 1005.4
20180623043932 66 67 3.0 0.0 0.00 0.00 0.00 60 1005.4
20180623042504 66 36 2.0 0.0 0.00 0.00 0.00 60 1005.5
20180623041028 66 57 4.0 0.0 0.00 0.00 0.00 60 1005.4
20180623035456 66 53 3.0 0.0 0.00 0.00 0.00 61 1005.4
20180623034024 67 59 2.0 0.0 0.00 0.00 0.00 61 1005.6
20180623032416 67 62 5.0 0.0 0.00 0.00 0.00 62 1005.6
20180623030940 67 360 3.0 0.0 0.00 0.00 0.00 63 1005.6
20180623025508 67 60 4.0 0.0 0.00 0.00 0.00 64 1005.8
20180623023902 67 57 3.0 0.0 0.00 0.00 0.00 65 1005.8
20180623022432 67 57 5.0 0.0 0.00 0.00 0.00 66 1005.7
20180623020835 67 65 5.0 0.0 0.00 0.00 0.00 67 1005.7
20180623015413 68 63 3.0 0.0 0.00 0.00 0.00 67 1005.7
20180623013947 68 53 3.0 0.0 0.00 0.00 0.00 66 1005.5
20180623012320 68 58 5.0 0.0 0.00 0.00 0.00 67 1005.6
20180623010838 68 61 6.0 0.0 0.00 0.00 0.00 67 1005.7
20180623005340 69 78 4.0 0.0 0.00 0.00 0.00 67 1005.6
20180623003902 69 86 4.0 0.0 0.00 0.00 0.00 68 1005.6
20180623002306 70 110 2.0 0.0 0.00 0.00 0.00 69 1005.5
20180623000835 70 71 1.0 0.0 0.00 0.00 0.00 68 1005.6
20180622235248 70 67 3.0 0.0 0.00 0.00 0.00 65 1005.4
20180622233815 71 61 6.0 0.0 0.00 0.00 0.00 64 1005.3
20180622232332 71 74 8.0 0.0 0.00 0.00 0.00 64 1005.3
20180622230849 71 96 8.0 0.0 0.00 0.00 0.00 65 1005.4
20180622225252 72 138 6.0 0.0 0.00 0.00 0.00 66 1005.2
20180622223819 72 52 5.0 0.0 0.00 0.00 0.00 65 1005.4
20180622222223 72 108 5.0 0.0 0.00 0.00 0.00 65 1005.6
20180622220800 73 69 2.0 0.0 0.00 0.00 0.00 65 1005.9
20180622215327 73 46 3.0 0.0 0.00 0.00 0.00 63 1006.1
20180622213729 73 85 2.0 0.0 0.00 0.00 0.00 63 1006.1
20180622212303 73 74 5.0 0.0 0.00 0.00 0.00 62 1006.2
20180622210659 73 77 2.0 0.0 0.00 0.00 0.00 62 1006.4
20180622205224 73 73 3.0 0.0 0.00 0.00 0.00 61 1006.5
20180622203756 74 120 5.0 0.0 0.00 0.00 0.00 60 1006.5
20180622202144 74 140 4.0 0.0 0.00 0.00 0.00 59 1006.6
20180622200713 75 65 5.0 0.0 0.00 0.00 0.00 59 1006.6
20180622195245 74 62 4.0 0.0 0.00 0.00 0.00 60 1006.6
20180622193645 74 107 4.0 0.0 0.00 0.00 0.00 61 1006.4
20180622192226 73 68 5.0 0.0 0.00 0.00 0.00 60 1006.5
20180622190620 73 57 4.0 0.0 0.00 0.00 0.00 60 1006.6
20180622185151 73 73 4.0 0.0 0.00 0.00 0.00 61 1006.6
20180622183720 73 76 4.0 0.0 0.00 0.00 0.00 63 1006.7
20180622182126 71 98 5.0 0.0 0.00 0.00 0.00 65 1006.9
20180622180710 70 61 7.0 0.0 0.00 0.00 0.00 63 1006.8
20180622175122 69 48 6.0 0.0 0.00 0.00 0.00 65 1007.0
20180622173640 69 351 6.0 0.0 0.00 0.00 0.00 65 1007.3
20180622172043 68 68 6.0 0.0 0.00 0.00 0.00 65 1007.6
20180622170617 68 49 5.0 0.0 0.00 0.00 0.00 65 1007.7
20180622165026 68 25 2.0 0.0 0.00 0.00 0.00 66 1007.9
20180622163549 68 69 4.0 0.0 0.00 0.00 0.00 65 1008.2
20180622162116 67 59 1.0 0.0 0.00 0.00 0.00 66 1008.2
20180622160520 67 54 4.0 0.0 0.00 0.00 0.00 64 1008.2
20180622155118 67 104 4.0 0.0 0.00 0.00 0.00 63 1008.3
20180622153521 66 20 2.0 0.0 0.00 0.00 0.00 65 1008.5
20180622152059 65 51 3.0 0.0 0.00 0.00 0.00 63 1008.5
20180622150454 65 78 1.0 0.0 0.00 0.00 0.00 64 1008.5
20180622145029 65 59 2.0 0.0 0.00 0.00 0.00 64 1008.6
20180622143525 65 48 2.0 0.0 0.00 0.00 0.00 61 1008.5
20180622142038 66 83 2.0 0.0 0.00 0.00 0.00 62 1008.6
20180622140452 66 126 2.0 0.0 0.00 0.00 0.00 62 1008.7
20180622134851 65 69 2.0 0.0 0.00 0.00 0.00 62 1008.7
20180622133343 65 74 1.0 0.0 0.00 0.00 0.00 63 1008.8
20180622131921 64 107 5.0 0.0 0.00 0.00 0.00 60 1008.7
20180622130405 64 70 5.0 0.0 0.00 0.00 0.00 62 1008.5
20180622124756 63 49 3.0 0.0 0.00 0.00 0.00 65 1008.6
20180622123233 61 82 3.0 0.0 0.00 0.00 0.00 66 1008.4
20180622121814 61 57 4.0 0.0 0.00 0.00 0.00 66 1008.4
20180622120349 60 65 3.0 0.0 0.00 0.00 0.00 67 1008.5
20180622114815 60 82 2.0 0.0 0.00 0.00 0.00 67 1008.5
20180622113217 60 49 3.0 0.0 0.00 0.00 0.00 67 1008.4
20180622111742 60 58 4.0 0.0 0.00 0.00 0.00 67 1008.5
20180622110307 60 55 3.0 0.0 0.00 0.00 0.00 68 1008.5
20180622104709 59 64 3.0 0.0 0.00 0.00 0.00 68 1008.6
20180622103241 59 86 4.0 0.0 0.00 0.00 0.00 70 1008.5
20180622101644 59 131 4.0 0.0 0.00 0.00 0.00 72 1008.5
20180622100213 59 47 2.0 0.0 0.00 0.00 0.00 72 1008.4
20180622094712 59 58 3.0 0.0 0.00 0.00 0.00 72 1008.5
20180622093238 59 54 1.0 0.0 0.00 0.00 0.00 73 1008.5
20180622091635 59 74 2.0 0.0 0.00 0.00 0.00 72 1008.6
20180622090213 60 71 2.0 0.0 0.00 0.00 0.00 71 1008.6
20180622084627 60 61 3.0 0.0 0.00 0.00 0.00 69 1008.7
20180622083157 61 49 1.0 0.0 0.00 0.00 0.00 67 1008.8
20180622081553 61 55 3.0 0.0 0.00 0.00 0.00 65 1008.9
20180622080127 61 114 3.0 0.0 0.00 0.00 0.00 63 1008.9
20180622074546 61 49 2.0 0.0 0.00 0.00 0.00 60 1008.9
20180622073120 61 55 2.0 0.0 0.00 0.00 0.00 58 1009.0
20180622071646 61 98 3.0 0.0 0.00 0.00 0.00 56 1009.0
20180622070039 62 71 3.0 0.0 0.00 0.00 0.00 54 1009.0
20180622064629 62 61 4.0 0.0 0.00 0.00 0.00 53 1009.0
20180622063017 62 54 2.0 0.0 0.00 0.00 0.00 53 1009.1
20180622061553 62 82 2.0 0.0 0.00 0.00 0.00 53 1009.1
20180622060015 62 71 2.0 0.0 0.00 0.00 0.00 54 1009.2